Regional Weather Roundup
Issued by NWS

Home | Current Version | Previous Version | Text Only | Print | Product List | Glossary On
Versions: 1 2 3 4 5 6 7 8 9 10 11 12 13 14 15 16 17 18 19 20 21 22 23 24 25 26 27 28 29 30 31 32 33 34 35 36 37 38 39 40 41 42 43 44 45 46 47 48 49 50
000
ASUS43 KTOP 100159
RWRKS

WEATHER ROUNDUP FOR KANSAS
NATIONAL WEATHER SERVICE GOODLAND KS
900 PM CDT WED JUL 09 2014

NOTE:  "FAIR" INDICATES FEW OR NO CLOUDS BELOW 12,000 FEET WITH NO
SIGNIFICANT WEATHER AND/OR OBSTRUCTIONS TO VISIBILITY.

KSZ001>006-013>018-027>032-041>047-100300-
NORTHWEST KANSAS

CITY           SKY/WX    TMP DP  RH WIND       PRES   REMARKS
GOODLAND       MOCLDY    80  63  55 SE17      29.95R
HAYS           CLEAR     81  55  41 S9        29.97R
HILL CITY      MOCLDY    83  56  39 S13       29.95R
RUSSELL        CLEAR     77  60  55 SE7       29.96R
$$

KSZ061>065-074>080-084>089-100300-
SOUTHWEST KANSAS

CITY           SKY/WX    TMP DP  RH WIND       PRES   REMARKS
DODGE CITY     CLEAR     79  60  52 SE16G24   29.96F
ELKHART          N/A     81  53  37 S14         N/A
GARDEN CITY    CLEAR     80  65  59 S17G31    29.95S
GREAT BEND     CLEAR     81  55  41 S10       29.95R
LIBERAL        PTCLDY    84  59  42 S13       29.97S
$$

KSZ066>073-081>083-090>101-100300-
SOUTHEAST KANSAS

CITY           SKY/WX    TMP DP  RH WIND       PRES   REMARKS
CHANUTE        CLEAR     75  61  61 E6        30.00S
COFFEYVILLE    CLEAR     78  60  53 E7        29.98S
HUTCHINSON     CLEAR     81  59  47 SE12      29.96R
MEDICINE LODGE   N/A     83  60  45 S6        29.95S
NEWTON         CLEAR     79  57  47 SE8       30.02R
PARSONS        CLEAR     72  63  73 CALM      30.00S
WICHITA INTL   PTCLDY    80  61  52 SE10      29.96S
WICHITA JABRA  CLEAR     79  63  57 SE9       29.98R
WINFIELD       CLEAR     81  64  56 E7        29.98S
$$

KSZ007>012-019>026-033>040-048>060-102>105-100300-
NORTHEAST KANSAS

CITY           SKY/WX    TMP DP  RH WIND       PRES   REMARKS
CONCORDIA      MOCLDY    78  63  59 E10       29.98R
EMPORIA        CLEAR     74  61  63 SE7       30.00R
LAWRENCE       CLEAR     73  65  75 E7        30.02R
MANHATTAN      CLEAR     79  64  60 E9        29.99R
OLATHE IND     PTCLDY    75  61  61 E7        30.03R
OLATHE EXE     PTCLDY    74  59  59 E5        30.02R
SALINA         CLEAR     83  60  45 SE9       29.97R
TOPEKA BILLARD CLEAR     77  65  66 E6        30.01R
TOPEKA FORBES  CLEAR     76  63  64 E6        30.01R
$$



USA.gov is the U.S. government's official web portal to all federal, state and local government web resources and services.